[[{"header":{"parameterUnit":"m.s-1","parameterCategory":1,"la1":30.2991,"la2":30.254,"lo1":-89.0895,"lo2":-89.0444,"dy":0.0017,"dx":0.0017,"nx":28,"ny":28,"refTime":"2024-10-13T03:00:00:Z","depth":0,"parameterNumber":2,"parameterNumberName":"U-component_of_WINDS"},"data":[0,0,0,0,0,0,0,0,0,0,0,0,0,0,0,0,0,0,0,0,0,0,0,0,0,0,0,0,0,0,0,0,0,0,0,0,0,0,0,0,0,0,0,0,0,0,0,0,0,0,0,0,0,0,0,0,0,0,1.5186,1.5187,0,1.523,1.523,1.5231,1.525,1.525,1.525,1.525,1.5294,1.5296,1.5297,0,0,0,0,0,0,0,0,0,0,0,0,0,1.5122,1.5123,1.5186,1.5187,1.5187,1.523,1.523,1.5231,1.525,1.525,1.525,1.525,1.5294,1.5295,1.5297,0,0,0,0,0,0,0,0,0,0,0,0,0,1.5156,1.5123,1.5186,1.5202,1.5204,1.523,1.523,1.5231,1.525,1.525,1.525,1.525,1.5293,1.5295,1.5297,1.531,0,0,1.5303,1.5303,0,0,0,0,0,0,0,0,1.5154,1.5158,1.5199,1.5201,1.5203,1.5235,1.5224,1.5257,1.525,1.5233,1.525,1.525,1.5275,1.5278,1.5286,1.5312,1.5313,1.5303,1.5304,1.5305,1.5305,0,0,0,0,0,0,0,1.5151,1.5156,1.5204,1.52,1.5202,1.5208,1.5213,1.523,1.5253,1.5234,1.5236,1.5241,1.5276,1.5284,1.5287,1.5314,1.5303,1.5304,1.5305,1.5306,1.5354,1.5354,0,0,0,0,0,0,1.5146,1.5154,1.5202,1.5205,1.5178,1.5209,1.5214,1.5225,1.5253,1.5258,1.5241,1.5242,1.5281,1.5285,1.5289,1.5306,1.5305,1.5306,1.5307,1.5354,1.5354,1.5354,0,0,0,0,0,0,1.5145,1.515,1.52,1.518,1.5187,1.521,1.5222,1.5226,1.5234,1.5258,1.5263,1.5245,1.5281,1.5286,1.5305,1.5308,1.5307,1.5309,1.5354,1.5354,1.5354,1.5341,0,0,0,0,0,0,1.5143,1.515,1.5154,1.518,1.5188,1.5215,1.5222,1.5226,1.5237,1.5239,1.5264,1.5268,1.5282,1.5302,1.5307,1.5311,1.531,1.5353,1.5354,1.5354,1.5341,1.5341,1.534,0,0,0,0,0,1.5141,1.5148,1.5154,1.516,1.5194,1.5215,1.522,1.5236,1.5238,1.5243,1.5258,1.5267,1.5307,1.5304,1.5309,1.5314,1.5353,1.5354,1.5354,1.5341,1.5341,1.534,0,0,0,0,0,0,1.5122,1.5152,1.5159,1.5175,1.5193,1.5218,1.5225,1.5234,1.5251,1.5252,1.5271,1.5276,1.5293,1.5305,1.5301,1.5328,1.5331,1.5333,1.532,1.5319,1.5319,1.5315,1.5312,0,0,0,0,0,1.512,1.5134,1.516,1.5172,1.518,1.5201,1.5211,1.5222,1.5241,1.5248,1.5265,1.5283,1.53,1.531,1.5327,1.5343,1.535,1.5349,1.5349,1.5349,1.5349,1.536,1.5361,1.5356,1.5356,1.5356,0,0,1.5115,1.5134,1.5141,1.5169,1.5183,1.5198,1.5207,1.5222,1.5234,1.525,1.5269,1.5282,1.5303,1.5321,1.533,1.5332,1.5353,1.5349,1.5349,1.535,1.5361,1.5361,1.5362,1.5356,1.5356,1.5356,0,0,1.5115,1.513,1.5142,1.5157,1.518,1.5194,1.5197,1.5222,1.5231,1.525,1.5264,1.5278,1.5306,1.5321,1.5333,1.534,1.5349,1.5345,1.5343,1.5353,1.5354,1.5354,1.5358,1.5359,1.5346,1.5346,1.5346,0,1.5106,1.5129,1.5147,1.5162,1.5174,1.5191,1.5204,1.5217,1.5244,1.5252,1.5254,1.5291,1.5307,1.5329,1.5331,1.5339,1.5344,1.5342,1.5352,1.5353,1.5354,1.5357,1.5358,1.5346,1.5346,1.5346,1.5346,0,1.5118,1.5134,1.5141,1.5167,1.5181,1.5194,1.5215,1.5226,1.5237,1.5251,1.5271,1.529,1.5312,1.5318,1.5328,1.5342,1.5343,1.5349,1.5352,1.5353,1.5357,1.5358,1.5345,1.5345,1.5345,1.5345,0,0,1.5105,1.5143,1.5145,1.5158,1.5185,1.5198,1.5213,1.5235,1.5244,1.5263,1.5277,1.5301,1.5307,1.532,1.5332,1.5341,1.5347,1.5346,1.5347,1.5346,1.5365,1.5361,1.5362,1.5354,1.5354,1.5354,1.5364,0,1.5109,1.5137,1.5154,1.5175,1.5191,1.5208,1.5222,1.524,1.5254,1.527,1.5286,1.5304,1.5309,1.5318,1.5328,1.5344,1.5352,1.5344,1.5367,1.5368,1.5361,1.5364,1.5359,1.5367,1.5365,1.5365,1.5366,0,1.5116,1.5135,1.5158,1.5185,1.5192,1.5204,1.5226,1.524,1.5262,1.5272,1.5288,1.5301,1.5318,1.5321,1.5346,1.5341,1.5351,1.5361,1.5362,1.5365,1.5366,1.5367,1.5369,1.5371,1.5368,1.5368,1.5368,0,1.5105,1.5136,1.5154,1.5165,1.5196,1.5204,1.5218,1.524,1.5252,1.5272,1.5281,1.5302,1.5313,1.533,1.5349,1.5349,1.5372,1.5376,1.5382,1.5381,1.5385,1.5385,1.539,1.5392,1.5392,1.5392,1.5392,0,1.5107,1.512,1.515,1.5161,1.5177,1.5198,1.5213,1.5228,1.5248,1.5263,1.5279,1.5293,1.5316,1.5333,1.5348,1.5367,1.5372,1.5381,1.5385,1.538,1.5379,1.5387,1.5387,1.5393,1.5392,1.5392,1.5392,0,1.5096,1.5117,1.5138,1.5167,1.5175,1.5185,1.521,1.5222,1.5238,1.5257,1.5263,1.5288,1.5308,1.5329,1.5357,1.5367,1.5386,1.5391,1.5379,1.5381,1.5385,1.5385,1.5396,1.5399,1.5399,1.5399,1.5399,0,1.5096,1.5107,1.5138,1.5149,1.5162,1.518,1.5194,1.5215,1.5228,1.5255,1.5264,1.5286,1.5305,1.5338,1.5359,1.5381,1.5386,1.5389,1.539,1.5385,1.5387,1.5386,1.5388,1.5388,1.5388,1.5388,1.5388,0,1.5093,1.5103,1.5122,1.5144,1.516,1.5179,1.5198,1.5206,1.5232,1.5246,1.5268,1.5283,1.5312,1.5334,1.5359,1.5374,1.5385,1.5388,1.539,1.5385,1.5377,1.5382,1.5377,1.5387,1.5387,1.5387,1.5387,1.5387,1.5088,1.5099,1.5123,1.5144,1.5161,1.5179,1.5192,1.521,1.5229,1.5254,1.5266,1.5289,1.5312,1.5347,1.5361,1.538,1.5382,1.5386,1.5387,1.5387,1.5386,1.5375,1.5384,1.5384,1.5384,1.5384,1.5384,0,1.5087,1.5103,1.5122,1.5149,1.5166,1.5176,1.5198,1.5212,1.5231,1.5252,1.5271,1.5297,1.5319,1.5342,1.5366,1.5376,1.5382,1.5382,1.5381,1.5385,1.5382,1.5378,1.5377,1.5377,1.5377,1.5377,1.5377,1.5377,1.5088,1.5107,1.512,1.5149,1.5166,1.5188,1.52,1.5218,1.5235,1.5263,1.5282,1.5297,1.532,1.5346,1.5367,1.5373,1.5381,1.5379,1.5387,1.5384,1.5385,1.5385,1.5381,1.5381,1.5381,1.5388,1.5388,1.5388]},{"header":{"parameterUnit":"m.s-1","parameterCategory":1,"la1":30.2991,"la2":30.254,"lo1":-89.0895,"lo2":-89.0444,"dy":0.0017,"dx":0.0017,"nx":28,"ny":28,"refTime":"2024-10-13T03:00:00:Z","depth":0,"parameterNumber":3,"parameterNumberName":"V-component_of_WINDS"},"data":[0,0,0,0,0,0,0,0,0,0,0,0,0,0,0,0,0,0,0,0,0,0,0,0,0,0,0,0,0,0,0,0,0,0,0,0,0,0,0,0,0,0,0,0,0,0,0,0,0,0,0,0,0,0,0,0,0,0,-0.903,-0.903,0,-0.9085,-0.9086,-0.9087,-0.9099,-0.9098,-0.9098,-0.9097,-0.9151,-0.9153,-0.9155,0,0,0,0,0,0,0,0,0,0,0,0,0,-0.8931,-0.8932,-0.9029,-0.903,-0.9031,-0.9085,-0.9086,-0.9087,-0.9099,-0.9098,-0.9098,-0.9097,-0.9151,-0.9153,-0.9155,0,0,0,0,0,0,0,0,0,0,0,0,0,-0.8979,-0.8933,-0.9029,-0.9043,-0.9045,-0.9085,-0.9086,-0.9087,-0.9099,-0.9098,-0.9097,-0.9097,-0.915,-0.9153,-0.9155,-0.9184,0,0,-0.9164,-0.9165,0,0,0,0,0,0,0,0,-0.8976,-0.8982,-0.9041,-0.9043,-0.9045,-0.9084,-0.9071,-0.9119,-0.9099,-0.9078,-0.9097,-0.9097,-0.9129,-0.9134,-0.9145,-0.9187,-0.9189,-0.9164,-0.9166,-0.9167,-0.9167,0,0,0,0,0,0,0,-0.8973,-0.898,-0.9051,-0.9041,-0.9044,-0.9046,-0.9052,-0.908,-0.9106,-0.908,-0.9081,-0.9088,-0.913,-0.9143,-0.9147,-0.919,-0.9164,-0.9166,-0.9168,-0.9169,-0.9258,-0.9259,0,0,0,0,0,0,-0.8967,-0.8977,-0.905,-0.9053,-0.9008,-0.9048,-0.9055,-0.9072,-0.9106,-0.9111,-0.9088,-0.9088,-0.9138,-0.9144,-0.9149,-0.9185,-0.9167,-0.9169,-0.9171,-0.9257,-0.9258,-0.9259,0,0,0,0,0,0,-0.8965,-0.8974,-0.9047,-0.9015,-0.9025,-0.9051,-0.907,-0.9074,-0.9086,-0.9112,-0.9117,-0.9096,-0.9138,-0.9145,-0.9176,-0.9187,-0.917,-0.9173,-0.9256,-0.9258,-0.9259,-0.9258,0,0,0,0,0,0,-0.8962,-0.8973,-0.8984,-0.9016,-0.9027,-0.9074,-0.907,-0.9075,-0.9091,-0.9092,-0.9121,-0.9125,-0.9138,-0.9172,-0.9178,-0.9191,-0.9175,-0.9256,-0.9257,-0.9258,-0.9257,-0.9259,-0.9261,0,0,0,0,0,-0.8959,-0.8981,-0.8985,-0.8994,-0.9042,-0.9075,-0.9081,-0.9096,-0.9092,-0.9104,-0.9121,-0.9124,-0.9185,-0.9175,-0.9182,-0.9196,-0.9255,-0.9257,-0.9258,-0.9257,-0.9259,-0.9261,0,0,0,0,0,0,-0.8949,-0.8986,-0.899,-0.9024,-0.9046,-0.9077,-0.9092,-0.9098,-0.9121,-0.9121,-0.9138,-0.9144,-0.9174,-0.9188,-0.9176,-0.9226,-0.922,-0.9223,-0.9216,-0.9218,-0.922,-0.9216,-0.9177,0,0,0,0,0,-0.8951,-0.8976,-0.9006,-0.9033,-0.9044,-0.9066,-0.9081,-0.9091,-0.9114,-0.9124,-0.9143,-0.9165,-0.9189,-0.9204,-0.9227,-0.9259,-0.9266,-0.9272,-0.9274,-0.9275,-0.9278,-0.9296,-0.93,-0.9265,-0.9265,-0.9264,0,0,-0.8956,-0.8978,-0.8993,-0.9031,-0.905,-0.9074,-0.9074,-0.9099,-0.9118,-0.9127,-0.9158,-0.9173,-0.9198,-0.923,-0.9245,-0.9242,-0.9289,-0.9277,-0.9278,-0.928,-0.9298,-0.9302,-0.9305,-0.9266,-0.9265,-0.9265,0,0,-0.8976,-0.8995,-0.902,-0.9039,-0.9068,-0.9083,-0.9089,-0.9119,-0.913,-0.9161,-0.9169,-0.919,-0.9231,-0.9249,-0.9264,-0.9292,-0.9296,-0.9299,-0.9308,-0.9326,-0.9328,-0.9331,-0.9341,-0.9345,-0.9301,-0.9301,-0.9301,0,-0.8977,-0.9015,-0.9032,-0.9058,-0.9075,-0.9086,-0.9111,-0.9128,-0.9163,-0.9174,-0.9171,-0.9223,-0.9241,-0.9277,-0.9284,-0.9296,-0.9303,-0.9296,-0.9327,-0.9329,-0.9332,-0.9342,-0.9346,-0.9301,-0.9301,-0.9301,-0.9301,0,-0.9015,-0.9042,-0.9058,-0.9093,-0.9111,-0.9136,-0.9157,-0.9173,-0.9182,-0.9197,-0.9228,-0.9251,-0.9279,-0.9288,-0.9296,-0.9326,-0.9324,-0.9324,-0.9318,-0.9335,-0.9345,-0.9349,-0.9302,-0.9302,-0.9302,-0.9302,0,0,-0.9031,-0.9076,-0.9081,-0.9098,-0.913,-0.9151,-0.9176,-0.9205,-0.922,-0.9243,-0.9265,-0.9299,-0.93,-0.9316,-0.9326,-0.9342,-0.9363,-0.934,-0.9341,-0.9344,-0.9398,-0.9398,-0.9402,-0.9366,-0.9367,-0.9368,-0.9396,0,-0.9055,-0.9103,-0.9119,-0.9158,-0.9183,-0.9194,-0.9216,-0.9239,-0.9253,-0.9276,-0.9291,-0.9316,-0.9314,-0.9325,-0.934,-0.9357,-0.9374,-0.9355,-0.9386,-0.9387,-0.938,-0.9407,-0.9408,-0.9433,-0.94,-0.94,-0.9401,0,-0.909,-0.9116,-0.9158,-0.9189,-0.9199,-0.9219,-0.9248,-0.9269,-0.9294,-0.9304,-0.9323,-0.9332,-0.9359,-0.9352,-0.9388,-0.9375,-0.9389,-0.9399,-0.94,-0.9404,-0.9395,-0.9412,-0.9441,-0.9445,-0.9407,-0.9407,-0.9406,0,-0.9098,-0.9143,-0.9174,-0.9187,-0.9224,-0.9238,-0.9253,-0.9278,-0.9295,-0.9319,-0.933,-0.9357,-0.9372,-0.9392,-0.9408,-0.9401,-0.9443,-0.9437,-0.9451,-0.9451,-0.946,-0.9459,-0.9492,-0.9468,-0.9468,-0.9468,-0.9468,0,-0.9124,-0.9149,-0.9178,-0.9197,-0.9226,-0.9244,-0.9271,-0.9288,-0.931,-0.9332,-0.9342,-0.9363,-0.9382,-0.9405,-0.9417,-0.9446,-0.9452,-0.946,-0.9463,-0.946,-0.9459,-0.9469,-0.9468,-0.9469,-0.9469,-0.9469,-0.9468,0,-0.9137,-0.9158,-0.9193,-0.9225,-0.9234,-0.9253,-0.928,-0.9299,-0.9314,-0.9342,-0.935,-0.9373,-0.9401,-0.9419,-0.9453,-0.9461,-0.9493,-0.9495,-0.9485,-0.9486,-0.95,-0.9498,-0.9541,-0.9547,-0.9518,-0.9519,-0.9519,0,-0.9153,-0.9173,-0.9208,-0.9224,-0.924,-0.9266,-0.9283,-0.9302,-0.932,-0.9351,-0.9365,-0.9394,-0.9417,-0.946,-0.948,-0.9506,-0.9509,-0.9522,-0.9513,-0.9509,-0.951,-0.9509,-0.9511,-0.9524,-0.9524,-0.9524,-0.9524,0,-0.9178,-0.9187,-0.9213,-0.9242,-0.9264,-0.9287,-0.9311,-0.9323,-0.9346,-0.9365,-0.9394,-0.9412,-0.9448,-0.9476,-0.9504,-0.9519,-0.9526,-0.9527,-0.9532,-0.9529,-0.9522,-0.9526,-0.9489,-0.9526,-0.9526,-0.9526,-0.9526,-0.9526,-0.9193,-0.9212,-0.924,-0.9268,-0.9288,-0.931,-0.933,-0.9348,-0.9373,-0.9404,-0.9414,-0.9444,-0.9469,-0.9508,-0.9523,-0.9547,-0.9545,-0.9552,-0.9554,-0.9555,-0.9556,-0.9518,-0.9552,-0.9552,-0.9552,-0.9552,-0.9551,0,-0.9219,-0.9238,-0.9264,-0.9298,-0.932,-0.9325,-0.9352,-0.937,-0.9397,-0.942,-0.9444,-0.9477,-0.9504,-0.9526,-0.9554,-0.9568,-0.9572,-0.9575,-0.9574,-0.9578,-0.9555,-0.9548,-0.9572,-0.9572,-0.9572,-0.9572,-0.9572,-0.9572,-0.9236,-0.9268,-0.9281,-0.9323,-0.9341,-0.9372,-0.9386,-0.9407,-0.9426,-0.9463,-0.9486,-0.9501,-0.9524,-0.9554,-0.9579,-0.9584,-0.9594,-0.9597,-0.9603,-0.9582,-0.9579,-0.9577,-0.9571,-0.9599,-0.9599,-0.9624,-0.9624,-0.9624]}]]